Location: Pasadena, ca
(34.1243°N, 118.1037°W)
Time: 11:42:58
(UTC-07:00)

ISS - Pass Details

Date: 15 October 2017
Orbit: 401 x 408 km, 51.6° (Epoch: 19 October)

Event Time Altitude Azimuth Distance (km) Brightness Sun altitude
Rises 20:17:35 0° 297° (WNW) 2,321 1.1 -25.5°
Reaches altitude 10° 20:20:03 10° 278° (W) 1,459 0.0 -26.1°
Enters shadow 20:22:10 19° 238° (WSW) 1,050 -1.2 -26.5°
